Regional Weather Roundup
Issued by NWS

Home | Current Version | Previous Version | Graphics & Text | Print | Product List | Glossary On
Versions: 1 2 3 4 5 6 7 8 9 10 11 12 13 14 15 16 17 18 19 20 21 22 23 24 25 26 27 28 29 30 31 32 33 34 35 36 37 38 39 40 41 42 43 44 45 46 47 48 49 50
000
ASUS45 KBOU 241607
RWRCO

WEATHER ROUNDUP FOR COLORADO
NATIONAL WEATHER SERVICE DENVER/BOULDER CO
1000 AM MDT THU JUL 24 2014

NOTE: "FAIR" INDICATES FEW OR NO CLOUDS BELOW 12000 FEET WITH NO
SIGNIFICANT WEATHER AND/OR OBSTRUCTIONS TO VISIBILITY.

COZ001>005-013-030-031-241700-
...NORTHWEST COLORADO...

CITY           SKY/WX    TMP DP  RH WIND       PRES   REMARKS
CRAIG          PTSUNNY   71  50  47 SW14      30.28F
HAYDEN         PTSUNNY   82  45  26 SW16G25   30.31S
MEEKER         CLOUDY    80  49  33 S13       30.30F
MOUNT WERNER   NOT AVBL
STEAMBOAT SPGS PTSUNNY   75  51  42 W3        30.34S
WALDEN         MOSUNNY   73  41  31 SW16G29   30.40F
$$

COZ006>008-011-241700-
...WEST CENTRAL VALLEYS...

CITY           SKY/WX    TMP DP  RH WIND       PRES   REMARKS
GRAND JUNCTION CLOUDY    83  50  31 SE17      30.20F
MONTROSE       PTSUNNY   77  55  46 N8        30.31F
EAGLE          PTSUNNY   75  46  35 VRB5      30.36F
RIFLE          CLOUDY    75  50  41 W5        30.26F
DELTA          PTSUNNY   78  55  44 E12       30.27F
NUCLA          PTSUNNY   82  46  28 W9        30.33F
$$

COZ017>023-064>068-241700-
...SOUTHWEST COLORADO...

CITY           SKY/WX    TMP DP  RH WIND       PRES   REMARKS
DURANGO        SUNNY     74  49  41 NE5       30.40F
CORTEZ         SUNNY     82  50  32 S8        30.31F
PAGOSA SPRINGS SUNNY     70  47  43 SW5       30.49S
TELLURIDE      MOSUNNY   72  43  35 CALM      30.53F
WOLF CREEK PAS NOT AVBL
$$

COZ009-010-012-014-032>034-037-058>063-241700-
...CENTRAL COLORADO...

CITY           SKY/WX    TMP DP  RH WIND       PRES   REMARKS
ASPEN          PTSUNNY   67  49  52 S5        30.45F
BUENA VISTA    PTSUNNY   72  45  37 NE3       30.43F
COPPER MTN     PTSUNNY   59  37  44 W20G35    30.76F
BERTHOUD PASS  FAIR      52  37  58 W22G29    30.78F
COTTONWOOD PAS PTSUNNY   72  36  26 CALM      30.58F
GUNNISON       MOSUNNY   70  45  40 CALM      30.48F
KREMMLING      MOSUNNY   70  43  37 CALM      30.41F
LEADVILLE      PTSUNNY   63  41  44 NW10G17   30.58F
MONARCH PASS   PTSUNNY   54  41  62 SW21G29   30.85F
SALIDA         PTSUNNY  N/A N/A N/A SW16G24   30.46F
SUNLIGHT       CLOUDY    59  46  63 CALM      30.68F
WILKERSON PASS MOSUNNY   55  41  58 SW8       30.69S
$$

COZ069>075-241700-
...SAN LUIS VALLEY/SANGRE DE CRISTO MOUNTAINS...

CITY           SKY/WX    TMP DP  RH WIND       PRES   REMARKS
ALAMOSA        SUNNY     72  48  42 S6        30.44F
LA VETA PASS   SUNNY     63  43  48 SW17G33   30.60S
SAGUACHE       MOSUNNY   68  50  52 S7        30.48F
$$

COZ035-036-038>040-241700-
...NORTHERN COLORADO FRONT RANGE...

CITY           SKY/WX    TMP DP  RH WIND       PRES   REMARKS
DENVER INTL AP MOSUNNY   88  47  24 SW6       30.13F
DMNS CITY PARK   N/A     83  50  31 S2G8      30.12S
AURORA         MOSUNNY   85  50  30 SW5       30.16F
FRONT RANGE AP MOSUNNY   91  46  21 W9        30.15F
ERIE MUNI ARPT SUNNY     89  48  23 NE3       30.09F
BOULDER MUN AP SUNNY     84  52  32 CALM      30.11S
CENTENNIAL     MOSUNNY   86  44  23 S6        30.17F
BROOMFIELD     MOSUNNY   88  50  27 S7        30.15F
FORT COLLINS   SUNNY     82  54  36 S6        30.09F
LONGMONT       SUNNY     86  55  33 E3        30.11S
$$

COZ041-046-047-076>085-087-088-241700-
...PIKES PEAK/PALMER DIVIDE AND SOUTHERN FOOTHILLS...

CITY           SKY/WX    TMP DP  RH WIND       PRES   REMARKS
COLO. SPRINGS  MOSUNNY   80  54  40 VRB3      30.23F
A. F. ACADEMY  SUNNY     84  44  24 SW8G18    30.25F
ELLICOTT       SUNNY     79  51  37 VRB6      30.22F
FALCON         SUNNY     80  55  42 CALM      30.30S
FORT CARSON    SUNNY     79  58  47 N3        30.20F
LIMON          SUNNY     89  46  22 S16G24    30.15F
MONUMENT HILL  SUNNY     82  41  23 W5        30.28F
TRINIDAD       SUNNY     85  47  26 SW16      30.24S
$$

COZ042>045-048>051-090-091-241700-
...NORTHEAST COLORADO...

CITY           SKY/WX    TMP DP  RH WIND       PRES   REMARKS
GREELEY ARPT   SUNNY     79  55  44 CALM      30.09S
AKRON          SUNNY     92  43  18 SW14G28   30.06F
BURLINGTON     SUNNY     88  57  34 SW16G24   30.10F
WRAY             N/A     95  50  21 S17G26    30.01F
STERLING       SUNNY     86  68  54 S9        30.01F
HOLYOKE        SUNNY     88  61  40 S8        30.01F
FORT MORGAN    SUNNY     85  50  29 SW8       30.07F
$$

COZ086-089-092>099-241700-
...SOUTHEAST COLORADO...

CITY           SKY/WX    TMP DP  RH WIND       PRES   REMARKS
PUEBLO         SUNNY     87  54  32 S8        30.13F
LA JUNTA       SUNNY     89  53  29 SW17G35   30.11F
LAMAR          SUNNY     91  54  28 SW12      30.06F
SPRINGFIELD      N/A     88  52  29 SW15G23   30.15F
$$


USA.gov is the U.S. government's official web portal to all federal, state and local government web resources and services.